This is the latest recevied weather packets stored in our database for station/object K9ZOG. If no packets are shown the sender has not sent any weather packets the latest 10 day(s).
| Time | Temp. | Humidity | Pressure | Rain* | Wind** | Luminosity | Snow |
|---|---|---|---|---|---|---|---|
| 1777801453 | 8.89° C | 58% | 1012.7 hPa | 0 mm | - | 0 W/m² | - |
| 1777801154 | 8.89° C | 58% | 1012.7 hPa | 0 mm | - | 0 W/m² | - |
| 1777800856 | 8.89° C | 57% | 1012.7 hPa | 0 mm | - | 0 W/m² | - |
| 1777800553 | 8.89° C | 57% | 1012.8 hPa | 0 mm | - | 0 W/m² | - |
| 1777800253 | 8.89° C | 57% | 1012.8 hPa | 0 mm | - | 0 W/m² | - |
| 1777799954 | 8.89° C | 58% | 1012.9 hPa | 0 mm | - | 0 W/m² | - |
| 1777799655 | 8.89° C | 59% | 1012.9 hPa | 0 mm | - | 0 W/m² | - |
| 1777799353 | 8.89° C | 59% | 1012.9 hPa | 0 mm | - | 0 W/m² | - |
| 1777799052 | 8.89° C | 60% | 1012.9 hPa | 0 mm | - | 0 W/m² | - |
| 1777798752 | 8.33° C | 62% | 1012.9 hPa | 0 mm | - | 0 W/m² | - |
| 1777798453 | 8.89° C | 63% | 1012.8 hPa | 0 mm | - | 0 W/m² | - |
| 1777798153 | 8.89° C | 63% | 1012.9 hPa | 0 mm | - | 0 W/m² | - |
| 1777797853 | 8.89° C | 63% | 1012.9 hPa | 0 mm | - | 0 W/m² | - |
| 1777797553 | 8.89° C | 61% | 1012.9 hPa | 0 mm | - | 0 W/m² | - |
| 1777797254 | 8.89° C | 59% | 1012.9 hPa | 0 mm | - | 0 W/m² | - |
| 1777796953 | 9.44° C | 59% | 1012.9 hPa | 0 mm | - | 0 W/m² | - |
| 1777796655 | 9.44° C | 59% | 1012.9 hPa | 0 mm | - | 0 W/m² | - |
| 1777796352 | 9.44° C | 57% | 1013 hPa | 0 mm | - | 0 W/m² | - |
| 1777796052 | 9.44° C | 55% | 1013 hPa | 0 mm | - | 0 W/m² | - |
| 1777795752 | 9.44° C | 56% | 1013 hPa | 0 mm | - | 0 W/m² | - |
| 1777795453 | 8.89° C | 56% | 1013.1 hPa | 0 mm | - | 0 W/m² | - |
| 1777795153 | 8.89° C | 56% | 1013.1 hPa | 0 mm | - | 0 W/m² | - |
| 1777794852 | 8.33° C | 60% | 1013.1 hPa | 0 mm | - | 0 W/m² | - |
| 1777794552 | 7.78° C | 63% | 1013.1 hPa | 0 mm | - | 0 W/m² | - |
| 1777794253 | 7.78° C | 65% | 1013.1 hPa | 0 mm | - | 0 W/m² | - |
* Rain latest hour (hover to see other rain measurements)
** Current wind speed in m/s (hover to see current wind gust speed)